Location: Cucq
(50.4773°N, 1.6202°E)
Time: 20:18:58
(UTC+00:00)

CENTAUR R/B - Pass Details

Date: 07 August 2020
Orbit: 754 x 1434 km, 63.5° (Epoch: 17 September)

Event Time Altitude Azimuth Distance (km) Brightness Sun altitude
Exits shadow 00:27:28 - 255° (WSW) 2,729 4.6 -22.9°
Reaches altitude 10° 00:27:36 10° 256° (WSW) 2,680 4.6 -22.9°
Maximum altitude 00:33:42 47° 330° (NNW) 1,387 3.6 -22.8°
Drops below altitude 10° 00:40:57 10° 43° (NE) 3,169 5.9 -22.6°
Sets 00:44:06 0° 49° (NE) 4,238 6.6 -22.5°
